Home > Time Zones > World Clock > Weather > Norway > Alta > Past weeks

Flag for Norway Weather past 2 weeks in Alta, Norway

Now
57 °F

Partly sunny.


Feels Like: 57 °F
Forecast: 54 / 64 °F
Wind: 1 mph from North

Location: Alta Lufthavn

Current Time: Jul 23, 2014 at 10:13:28 AM

Latest Report: Jul 23, 2014 at 7:50 AM


Visibility: N/A

Pressure: 30.27 "Hg

Humidity: 88%

Dew point: 54 °F

Location of AltaLocation

Historic Weather in Alta — Graph

°F

Alta temperature yesterday

Maximum temperature yesterday: 68 °F (at 11:50 AM)
Minimum temperature yesterday: 59 °F (at 1:50 AM)
Average temperature yesterday: 62 °F

Past Weeks' High & Low Weather Summary

 TemperatureHumidityPressure
High81 °F (Jul 10, 9:50 AM)100% (Jul 18, 3:20 AM)30.30 "Hg (Jul 18, 3:20 AM)
Low52 °F (Jul 13, 3:50 AM)34% (Jul 9, 4:50 PM)29.80 "Hg (Jul 15, 1:50 PM)
Average61 °F74%30.11 "Hg
* Reported Jul 8 6:50 AM — Jul 23 6:50 AM, Alta, Weather by CustomWeather, © 2014

Note: Actual official high and low records may vary slightly from our data, if they occured in-between our weather recording intervals... More about our weather records

Advertising

Alta weather history for previous 24 hours

 ConditionsComfort  
Time TempWeatherWind HumidityBarometerVisibility
6:50 AM
Jul 23
57 °FDrizzle. Partly sunny.1 mph88%30.27 "HgN/A
5:50 AM57 °FSunny.2 mph88%30.27 "Hg10 mi
5:20 AM57 °FOvercast.No wind88%30.27 "HgN/A
4:50 AM57 °FPartly sunny.2 mph88%30.27 "HgN/A
4:20 AM55 °FOvercast.2 mph94%30.27 "HgN/A
3:50 AM55 °FOvercast.No wind94%30.27 "HgN/A
3:20 AM55 °FOvercast.3 mph94%30.27 "HgN/A
2:50 AM55 °FOvercast.2 mph88%30.27 "HgN/A
2:20 AM55 °FMostly cloudy.2 mph88%30.27 "HgN/A
1:50 AM55 °FCloudy.3 mph88%30.27 "HgN/A
6:50 PM
Jul 22
59 °FPassing clouds.7 mph82%30.24 "HgN/A
5:50 PM61 °FPassing clouds.3 mph77%30.24 "HgN/A
4:50 PM61 °FScattered showers. Partly sunny.10 mph77%30.24 "HgN/A
3:50 PM63 °FSunny.14 mph68%30.21 "Hg10 mi
2:50 PM63 °FSunny.14 mph68%30.21 "Hg10 mi
1:50 PM63 °FSunny.16 mph73%30.21 "Hg10 mi
12:50 PM64 °FSunny.13 mph64%30.21 "Hg10 mi
11:50 AM68 °FSunny.12 mph60%30.21 "Hg10 mi
10:50 AM66 °FSunny.10 mph64%30.18 "Hg10 mi
Weather by CustomWeather, © 2014

See weather overviewHow to use our weather pages